Change the Weather History Date:

Monday, December 24, 2012

  Actual Average Record
Temperature  
Mean Temperature 14 °F -  
Max Temperature 21 °F 22 °F 40 °F (1940)
Min Temperature 7 °F 4 °F -27 °F (1983)
Degree Days  
Heating Degree Days 51    
Moisture  
Dew Point 10 °F    
Average Humidity 76    
Maximum Humidity 84    
Minimum Humidity 68    
Precipitation  
Precipitation 0.00 in - - ()
Sea Level Pressure  
Sea Level Pressure 30.06 in    
Wind  
Wind Speed 6 mph (North)    
Max Wind Speed 14 mph    
Max Gust Speed -    
Visibility 10 miles    
Events      
Averages and records for this station are not official NWS values.
T = Trace of Precipitation, MM = Missing Value Source: NWS Daily Summary

Daily Weather History Graph

Daily Weather History Graph

Search for Another Location

Airport or City:

Trip Planner

Search our weather history database for the weather conditions in past years. The results will help you decide how hot, cold, wet, or windy it might be!

Date:

Astronomy

Dec. 24, 2012 Rise Set
Actual Time 7:36 AM CST 4:25 PM CST
Civil Twilight 7:02 AM CST 4:58 PM CST
Nautical Twilight 6:25 AM CST 5:35 PM CST
Astronomical Twilight 5:50 AM CST 6:11 PM CST
Moon 1:55 PM CST (12/24) 4:11 AM CST (12/24)
Length of Visible Light 9h 56m
Length of Day
8h 49m
Waxing Gibbous, 88% of the Moon is Illuminated
Dec 24
Waxing Gibbous
Dec 28
Full
Jan 4
Last Quarter
Jan 11
New
Jan 18
First Quarter

Hourly Weather History & Observations

Time (CST) Temp. Windchill Dew Point Humidity Pressure Visibility Wind Dir Wind Speed Gust Speed Precip Events Conditions
12:54 AM 16.0 °F 7.4 °F 10.0 °F 77% 30.03 in 10.0 mi ENE 5.8 mph - N/A   Mostly Cloudy
1:54 AM 15.1 °F 6.4 °F 9.0 °F 77% 30.02 in 10.0 mi NE 5.8 mph - N/A   Overcast
2:54 AM 14.0 °F 6.5 °F 9.0 °F 80% 30.02 in 10.0 mi ENE 4.6 mph - N/A   Clear
3:54 AM 15.1 °F 9.4 °F 9.0 °F 77% 30.02 in 10.0 mi NNE 3.5 mph - N/A   Overcast
4:54 AM 15.1 °F 6.4 °F 9.0 °F 77% 30.01 in 10.0 mi NE 5.8 mph - N/A   Overcast
5:54 AM 15.1 °F 6.4 °F 10.0 °F 80% 30.02 in 10.0 mi NE 5.8 mph - N/A   Overcast
6:54 AM 15.1 °F 6.4 °F 10.0 °F 80% 30.02 in 10.0 mi ENE 5.8 mph - N/A   Overcast
7:54 AM 15.1 °F 6.4 °F 10.0 °F 80% 30.01 in 10.0 mi NNE 5.8 mph - N/A   Overcast
8:54 AM 16.0 °F 10.4 °F 10.0 °F 77% 30.03 in 10.0 mi NE 3.5 mph - N/A   Overcast
9:54 AM 17.1 °F 10.0 °F 10.0 °F 74% 30.03 in 10.0 mi NE 4.6 mph - N/A   Overcast
10:54 AM 19.0 °F 13.9 °F 12.0 °F 74% 30.04 in 10.0 mi Variable 3.5 mph - N/A   Overcast
11:54 AM 19.9 °F 12.1 °F 12.0 °F 71% 30.03 in 10.0 mi North 5.8 mph - N/A   Overcast
12:54 PM 21.0 °F 10.6 °F 12.9 °F 71% 30.03 in 10.0 mi NNW 9.2 mph - N/A   Overcast
1:54 PM 21.9 °F 11.7 °F 12.9 °F 68% 30.03 in 10.0 mi NNE 9.2 mph - N/A   Overcast
2:11 PM 21.2 °F 11.7 °F 12.2 °F 68% 29.96 in 10.0 mi North 8.1 mph - N/A   Overcast
2:22 PM 21.2 °F 10.9 °F 12.2 °F 68% 29.96 in 10.0 mi NNW 9.2 mph - N/A   Overcast
2:54 PM 19.9 °F 6.7 °F 12.9 °F 74% 30.04 in 10.0 mi NNW 13.8 mph - N/A   Overcast
3:54 PM 19.9 °F 9.3 °F 12.9 °F 74% 30.05 in 10.0 mi North 9.2 mph - N/A   Overcast
4:54 PM 19.0 °F 10.0 °F 12.9 °F 77% 30.07 in 10.0 mi NNW 6.9 mph - N/A   Mostly Cloudy
5:06 PM 17.6 °F 8.2 °F 12.2 °F 79% 30.00 in 10.0 mi NNW 6.9 mph - N/A   Scattered Clouds
5:54 PM 12.9 °F 3.8 °F 9.0 °F 84% 30.10 in 10.0 mi NW 5.8 mph - N/A   Clear
6:54 PM 12.0 °F 0.5 °F 8.1 °F 84% 30.13 in 10.0 mi NW 8.1 mph - N/A   Partly Cloudy
7:54 PM 10.9 °F -0.8 °F 7.0 °F 84% 30.15 in 10.0 mi NW 8.1 mph - N/A   Clear
8:54 PM 10.9 °F -2.6 °F 6.1 °F 81% 30.17 in 10.0 mi NNW 10.4 mph - N/A   Clear
9:54 PM 10.0 °F -1.9 °F 3.0 °F 73% 30.19 in 10.0 mi NNW 8.1 mph - N/A   Clear
10:54 PM 7.0 °F -4.5 °F 1.9 °F 80% 30.23 in 10.0 mi NW 6.9 mph - N/A   Clear
11:54 PM 8.1 °F -5.3 °F 1.9 °F 76% 30.22 in 10.0 mi North 9.2 mph - N/A   Clear